Weather observations for the past three days for
McAlester, McAlester Regional Airport
Imperial (Metric)
Date Time (cdt) Wind (mph) Vis. (mi.) Weather Sky Cond. Temperature (ºF) Relative Humidity Wind Chill (°F) Heat Index (°F) Pressure Precipitation (in)
Air Dwpt 6 hour altimeter (in) sea level (mb) 1 hr 3 hr 6 hr
Max. Min.
16 09:53 S 13 G 23 10.00 Fair CLR 86 72 63% 92 29.91 1011.5
16 08:53 S 10 G 22 10.00 Partly Cloudy SCT110 82.9 72 70% 88 29.91 1011.7
16 07:53 S 8 G 18 10.00 Fair CLR 81 72 74% 85 29.92 1012.1
16 06:53 S 8 10.00 Partly Cloudy SCT075 SCT095 79 71.1 82.9 79 77% 82 29.9 1011.3
16 05:53 S 8 10.00 Fair CLR 79 71.1 77% 82 29.89 1011.1
16 04:53 Vrbl 6 G 18 10.00 Fair CLR 80.1 72 76% 84 29.88 1010.5
16 03:53 Vrbl 6 10.00 A Few Clouds FEW100 81 72 74% 85 29.87 1010.2
16 02:53 S 6 10.00 Partly Cloudy FEW070 SCT080 81 72 74% 85 29.87 1010.4
16 01:53 S 7 10.00 Fair CLR 82 72 72% 87 29.89 1011.1
16 00:53 Vrbl 7 10.00 Fair CLR 82.9 71.1 93 82.9 67% 88 29.9 1011.1
15 23:53 S 6 10.00 Fair CLR 84 71.1 65% 89 29.89 1011.1
15 22:53 S 8 10.00 Fair CLR 84.9 71.1 63% 90 29.88 1010.7
15 21:53 S 6 10.00 Fair CLR 86 70 59% 91 29.86 1010.0
15 20:53 S 5 10.00 Fair CLR 84.9 72 65% 91 29.87 1010.4
15 19:53 S 3 10.00 Fair CLR 88 73.9 63% 97 29.87 1010.4
15 18:53 SW 5 10.00 Fair CLR 93 72 97 91.9 50% 101 29.88 1010.6
15 17:53 SW 14 G 21 10.00 Fair CLR 95 70 44% 101 29.89 1010.8
15 16:53 SW 8 10.00 Fair CLR 95 73 49% 105 29.89 1011.0
15 15:53 S 8 G 21 10.00 Fair CLR 96.1 72 46% 105 29.9 1011.2
15 14:53 Vrbl 6 10.00 Fair CLR 95 72 47% 103 29.93 1012.2
15 13:53 SW 12 G 20 10.00 Fair CLR 93.9 72 49% 102 29.95 1012.9
15 12:53 SW 12 G 18 10.00 Fair CLR 91.9 73 91.9 78.1 54% 101 29.97 1013.5
15 11:53 S 10 G 18 10.00 Fair CLR 90 73 58% 98 29.98 1014.1
15 10:53 S 12 G 20 10.00 Fair CLR 88 72 59% 95 30.01 1014.9
15 09:53 S 7 G 18 10.00 Fair CLR 84.9 72 65% 91 30.01 1015.2
15 08:53 S 8 10.00 A Few Clouds FEW110 82 72 72% 87 30.02 1015.5
15 07:53 Vrbl 7 10.00 Mostly Cloudy SCT100 BKN120 79 71.1 77% 82 30.01 1015.1
15 06:53 S 6 10.00 Partly Cloudy FEW080 FEW100 SCT120 78.1 71.1 82.9 78.1 79% 80 29.99 1014.6
15 05:53 Vrbl 6 10.00 Mostly Cloudy SCT060 BKN075 79 71.1 77% 82 29.99 1014.3
15 04:53 S 6 10.00 Fair CLR 79 71.1 77% 82 29.98 1014.1
15 03:53 Vrbl 6 10.00 Fair CLR 80.1 72 76% 84 29.98 1014.1
15 01:53 Vrbl 6 10.00 Fair CLR 82 72 72% 87 29.99 1014.4
15 00:53 S 8 10.00 Fair CLR 82.9 72 91.9 81 70% 88 30 1014.7
14 23:53 Vrbl 5 10.00 Fair CLR 84 72 67% 90 30.01 1014.9
14 22:53 SE 5 10.00 Fair CLR 84 72 67% 90 30.01 1015.0
14 21:53 S 5 10.00 Fair CLR 84.9 72 65% 91 30 1014.8
14 20:53 SE 5 10.00 Fair CLR 82.9 73 72% 89 30 1014.8
14 19:53 Calm 10.00 Fair CLR 86 75.9 72% 96 29.99 1014.5
14 18:53 S 7 10.00 Fair CLR 91.9 71.1 95 91 51% 99 29.99 1014.4
14 17:53 S 6 10.00 Fair CLR 93.9 71.1 48% 101 30 1014.8
14 16:53 SW 12 G 18 10.00 Fair CLR 95 71.1 46% 102 30.02 1015.2
14 15:53 S 7 10.00 A Few Clouds FEW055 93.9 73 51% 103 30.03 1015.6
14 14:53 S 10 G 17 10.00 Fair CLR 93 73 52% 102 30.03 1015.8
14 13:53 S 6 10.00 Fair CLR 93 75 56% 104 30.06 1016.6
14 12:53 SW 8 10.00 Fair CLR 91 75 91 75 59% 102 30.09 1017.6
14 11:53 S 7 10.00 Fair CLR 89.1 73.9 61% 98 30.1 1018.0
14 10:53 S 8 10.00 Fair CLR 87.1 73.9 65% 95 30.11 1018.5
14 09:53 SW 9 10.00 A Few Clouds FEW110 84 73 70% 90 30.12 1018.9
14 08:53 SW 13 G 18 10.00 Partly Cloudy SCT100 81 73 77% 86 30.13 1019.1
14 07:53 S 7 10.00 Fair CLR 78.1 72 82% 80 30.12 1018.8
14 06:53 Vrbl 5 10.00 Partly Cloudy FEW075 SCT095 75 71.1 81 75 88% 75 30.12 1018.8
14 05:53 S 5 10.00 Fair CLR 75 71.1 88% 75 30.11 1018.5
14 04:53 S 5 10.00 Fair CLR 75.9 70 82% 77 30.1 1018.2
14 03:53 S 5 10.00 Partly Cloudy FEW065 SCT100 77 70 79% 79 30.09 1017.9
14 02:53 Vrbl 6 10.00 Fair CLR 78.1 71.1 79% 80 30.1 1018.1
14 01:53 Vrbl 6 10.00 Fair CLR 79 71.1 77% 82 30.11 1018.5
14 00:53 Vrbl 6 10.00 A Few Clouds FEW065 81 70 90 81 69% 84 30.12 1018.9
13 23:53 S 5 10.00 Fair CLR 81 69.1 67% 84 30.12 1018.8
13 22:53 SE 6 10.00 Fair CLR 82 69.1 65% 85 30.12 1018.7
13 21:53 SE 7 10.00 Fair CLR 84 70 63% 88 30.1 1018.2
13 20:53 Vrbl 5 10.00 Fair CLR 84.9 69.1 59% 89 30.1 1018.0
13 19:53 S 5 10.00 Fair CLR 87.1 70 57% 92 30.08 1017.5
13 18:53 S 5 10.00 Fair CLR 91 70 93 88 50% 97 30.08 1017.4
13 17:53 S 8 10.00 Fair CLR 91.9 69.1 47% 97 30.09 1017.7
13 16:53 Vrbl 6 10.00 A Few Clouds FEW060 91.9 70 49% 98 30.1 1018.3
13 15:53 SW 9 10.00 Fair CLR 93 69.1 46% 98 30.12 1018.9
13 14:53 Calm 10.00 Fair CLR 91.9 69.1 47% 97 30.13 1019.3
13 13:53 Calm 10.00 Fair CLR 90 69.1 50% 95 30.16 1020.1
13 12:53 Calm 10.00 Partly Cloudy SCT041 89.1 70 89.1 75 53% 94 30.17 1020.6
13 11:53 Vrbl 3 10.00 Fair CLR 88 70 55% 93 30.18 1020.9
13 10:53 SW 7 10.00 Fair CLR 84.9 70 61% 89 30.18 1021.0
Date Time (cdt) Wind (mph) Vis. (mi.) Weather Sky Cond. Air Dwpt Max. Min. Relative Humidity Wind Chill (°F) Heat Index (°F) altimeter (in) sea level (mb) 1 hr 3 hr 6 hr
6 hour
Temperature (ºF) Pressure Precipitation (in)